Location: Capelle
(50.3413°N, 1.9974°E)
Time: 23:52:13
(UTC+00:00)

Resurs 1-3 - Pass Details

Date: 12 January 2026
Orbit: 612 x 615 km, 97.7° (Epoch: 17 February)

Event Time Altitude Azimuth Distance (km) Brightness Sun altitude
Rises 18:22:14 0° 172° (S) 2,874 7.0 -19.8°
Reaches altitude 10° 18:24:25 10° 176° (S) 1,974 6.2 -20.2°
Maximum altitude 18:28:41 65° 258° (WSW) 679 3.9 -20.8°
Drops below altitude 10° 18:33:00 10° 341° (NNW) 1,990 6.3 -21.5°
Sets 18:35:13 0° 345° (NNW) 2,900 7.1 -21.9°
